Regional Weather Roundup
Issued by NWS

Home | Current Version | Previous Version | Text Only | Print | Product List | Glossary On
Versions: 1 2 3 4 5 6 7 8 9 10 11 12 13 14 15 16 17 18 19 20 21 22 23 24 25 26 27 28 29 30 31 32 33 34 35 36 37 38 39 40 41 42 43 44 45 46 47 48 49 50
900
ASUS43 KTOP 260459
RWRKS

WEATHER ROUNDUP FOR KANSAS
NATIONAL WEATHER SERVICE GOODLAND KS
1200 AM CDT WED JUL 26 2017

NOTE:  "FAIR" INDICATES FEW OR NO CLOUDS BELOW 12,000 FEET WITH NO
SIGNIFICANT WEATHER AND/OR OBSTRUCTIONS TO VISIBILITY.

KSZ001>006-013>018-027>032-041>047-260600-
NORTHWEST KANSAS

CITY           SKY/WX    TMP DP  RH WIND       PRES   REMARKS
GOODLAND       CLOUDY    77  62  59 W14       30.00S
HAYS           CLEAR     86  67  52 S15       29.94R
HILL CITY      PTCLDY    87  65  47 S16G25    29.91F
RUSSELL        PTCLDY    87  64  46 S17G24    29.93R
$$

KSZ061>065-074>080-084>089-260600-
SOUTHWEST KANSAS

CITY           SKY/WX    TMP DP  RH WIND       PRES   REMARKS
DODGE CITY     PTCLDY    86  63  45 S18       29.99R
ELKHART          N/A     79  53  40 S7          N/A
GARDEN CITY    CLOUDY    83  62  49 S15G22    29.98R
LIBERAL        CLOUDY    85  62  46 S13       30.01R
$$

KSZ066>073-081>083-090>101-260600-
SOUTHEAST KANSAS

CITY           SKY/WX    TMP DP  RH WIND       PRES   REMARKS
CHANUTE        CLEAR     80  71  74 S7        30.04S
COFFEYVILLE    CLEAR     81  73  76 SE6       30.03S
HUTCHINSON     CLEAR     84  67  56 SE12      29.98S
MEDICINE LODGE   N/A     86  65  49 S9G18     29.97S
NEWTON         CLEAR     80  70  71 SE10      30.01S
PARSONS        CLEAR     81  71  71 SE5       30.05S
WICHITA INTL   PTCLDY    84  70  62 SE13      29.98F
WICHITA JABRA  CLEAR     84  70  62 S14       29.99F
WINFIELD       CLEAR     84  72  67 S14       30.02S
$$

KSZ007>012-019>026-033>040-048>060-102>105-260600-
NORTHEAST KANSAS

CITY           SKY/WX    TMP DP  RH WIND       PRES   REMARKS
CONCORDIA      CLOUDY    83  70  64 SE16      29.96R
EMPORIA        CLEAR     81  71  71 S13       30.01S
LAWRENCE       PTCLDY    78  74  87 E5        30.01S
MANHATTAN      CLEAR     85  71  63 S14G23    29.97S
OLATHE IND     CLOUDY    81  73  76 SE6       30.04S
OLATHE EXE     PTCLDY    80  75  84 SE8       30.04S
SALINA         PTCLDY    88  67  49 SE14      29.96R
TOPEKA BILLARD CLOUDY    82  73  74 SE8       30.00S
TOPEKA FORBES  CLEAR     81  73  76 SE7       30.01S
$$




USA.gov is the U.S. government's official web portal to all federal, state and local government web resources and services.